Hays, KS

10:49 AM CDT on August 20, 2017 (GMT -0500)
Hays Regional

Weather History for KHYS - March, 2014

Change the Weather History Date:

Monday, March 31, 2014

  Actual Average Record
Temperature  
Mean Temperature 50 °F -  
Max Temperature 64 °F 57 °F 84 °F (2012)
Min Temperature 37 °F 34 °F 24 °F (2004)
Degree Days  
Heating Degree Days 14    
Moisture  
Dew Point 25 °F    
Average Humidity 32    
Maximum Humidity 52    
Minimum Humidity 21    
Precipitation  
Precipitation 0.00 in - - ()
Sea Level Pressure  
Sea Level Pressure 29.72 in    
Wind  
Wind Speed 28 mph (WNW)    
Max Wind Speed 41 mph    
Max Gust Speed 52 mph    
Visibility 8 miles    
Events      
Averages and records for this station are not official NWS values.
T = Trace of Precipitation, MM = Missing Value Source: NWS Daily Summary

Daily Weather History Graph

Daily Weather History Graph

Search for Another Location

Airport or City:

Trip Planner

Search our weather history database for the weather conditions in past years. The results will help you decide how hot, cold, wet, or windy it might be!

Date:

Astronomy

Mar. 31, 2014 Rise Set
Actual Time 7:23 AM CDT 7:59 PM CDT
Civil Twilight 6:56 AM CDT 8:26 PM CDT
Nautical Twilight 6:24 AM CDT 8:58 PM CDT
Astronomical Twilight 5:52 AM CDT 9:30 PM CDT
Moon 7:48 AM CDT (3/31) 9:19 PM CDT (3/31)
Length of Visible Light 13h 30m
Length of Day
12h 36m
New Moon, 1% of the Moon is Illuminated
Mar 31
New Moon
Apr 7
First Quarter
Apr 15
Full
Apr 22
Last Quarter
Apr 29
New

Hourly Weather History & Observations

Time (CDT) Temp. Windchill Dew Point Humidity Pressure Visibility Wind Dir Wind Speed Gust Speed Precip Events Conditions
12:15 AM - - - N/A% 29.52 in 10.0 mi South 29.9 mph 41.4 mph N/A   Clear
12:35 AM - - - N/A% 29.52 in 10.0 mi South 31.1 mph 41.4 mph N/A   Clear
12:55 AM - - - N/A% 29.51 in 10.0 mi South 32.2 mph 38.0 mph N/A   Clear
1:15 AM - - - N/A% 29.50 in 10.0 mi South 33.4 mph 39.1 mph N/A   Clear
1:35 AM 64.4 °F - 32.0 °F 30% 29.51 in 10.0 mi South 33.4 mph 42.6 mph N/A   Clear
1:55 AM - - - N/A% 29.49 in 10.0 mi South 34.5 mph 44.9 mph N/A   Clear
2:15 AM - - - N/A% 29.49 in 10.0 mi South 32.2 mph 40.3 mph N/A   Clear
2:35 AM - - - N/A% 29.48 in 10.0 mi South 31.1 mph 39.1 mph N/A   Clear
2:55 AM - - - N/A% 29.48 in 10.0 mi South 32.2 mph 40.3 mph N/A   Clear
3:15 AM - - - N/A% 29.47 in 10.0 mi South 29.9 mph 38.0 mph N/A   Clear
3:35 AM 62.6 °F - 33.8 °F 34% 29.47 in 10.0 mi South 29.9 mph 38.0 mph N/A   Clear
3:55 AM 62.6 °F - 33.8 °F 34% 29.47 in 10.0 mi SSW 28.8 mph 38.0 mph N/A   Clear
4:15 AM 62.6 °F - 35.6 °F 37% 29.47 in 10.0 mi SSW 28.8 mph 35.7 mph N/A   Clear
4:35 AM 60.8 °F - 35.6 °F 39% 29.50 in 10.0 mi SW 23.0 mph 27.6 mph N/A   Partly Cloudy
4:55 AM 60.8 °F - 35.6 °F 39% 29.50 in 10.0 mi SW 24.2 mph - N/A   Mostly Cloudy
5:15 AM 62.6 °F - 37.4 °F 39% 29.51 in 10.0 mi SW 20.7 mph - N/A   Overcast
5:35 AM 62.6 °F - 37.4 °F 39% 29.51 in 10.0 mi SW 19.6 mph - N/A   Overcast
5:55 AM 60.8 °F - 35.6 °F 39% 29.51 in 9.0 mi SSW 17.3 mph - N/A   Overcast
6:15 AM 59.0 °F - 35.6 °F 42% 29.52 in 8.0 mi SSW 13.8 mph - N/A   Overcast
6:55 AM 59.0 °F - 21.2 °F 23% 29.54 in 5.0 mi WSW 16.1 mph 23.0 mph N/A   Overcast
7:15 AM 57.2 °F - 17.6 °F 21% 29.54 in 5.0 mi WSW 12.7 mph 18.4 mph N/A   Overcast
7:35 AM 53.6 °F - 17.6 °F 24% 29.55 in 4.0 mi WSW 12.7 mph 18.4 mph N/A   Overcast
7:55 AM 55.4 °F - 17.6 °F 23% 29.56 in 4.0 mi WSW 13.8 mph - N/A   Overcast
8:15 AM 55.4 °F - 17.6 °F 23% 29.57 in 5.0 mi West 18.4 mph 24.2 mph N/A   Scattered Clouds
8:35 AM 55.4 °F - 15.8 °F 21% 29.58 in 6.0 mi West 19.6 mph 26.5 mph N/A   Clear
8:55 AM 55.4 °F - 15.8 °F 21% 29.59 in 7.0 mi West 20.7 mph 28.8 mph N/A   Clear
9:15 AM 59.0 °F - 21.2 °F 23% 29.60 in 8.0 mi West 24.2 mph 33.4 mph N/A   Clear
9:35 AM 60.8 °F - 28.4 °F 29% 29.62 in 10.0 mi WNW 28.8 mph 39.1 mph N/A   Clear
9:55 AM 60.8 °F - 28.4 °F 29% 29.63 in 9.0 mi WNW 33.4 mph 42.6 mph N/A   Clear
10:15 AM 60.8 °F - 30.2 °F 31% 29.65 in 4.0 mi NW 38.0 mph 46.0 mph N/A   Mostly Cloudy
10:35 AM 57.2 °F - 30.2 °F 36% 29.67 in 4.0 mi NW 41.4 mph 51.8 mph N/A   Overcast
10:55 AM 57.2 °F - 30.2 °F 36% 29.69 in 5.0 mi NW 36.8 mph 48.3 mph N/A   Overcast
11:15 AM 57.2 °F - 32.0 °F 38% 29.70 in 5.0 mi WNW 34.5 mph 47.2 mph N/A   Overcast
11:35 AM 57.2 °F - 30.2 °F 36% 29.71 in 5.0 mi WNW 35.7 mph 46.0 mph N/A   Overcast
11:55 AM 59.0 °F - 28.4 °F 31% 29.72 in 5.0 mi NW 32.2 mph 46.0 mph N/A   Overcast
12:15 PM 59.0 °F - 26.6 °F 29% 29.73 in 3.0 mi NW 36.8 mph 47.2 mph N/A   Overcast
12:35 PM 59.0 °F - 26.6 °F 29% 29.73 in 4.0 mi WNW 36.8 mph 50.6 mph N/A   Overcast
12:55 PM 60.8 °F - 24.8 °F 25% 29.74 in 5.0 mi NW 35.7 mph 46.0 mph N/A   Overcast
1:15 PM 60.8 °F - 24.8 °F 25% 29.75 in 3.0 mi WNW 34.5 mph 46.0 mph N/A   Overcast
1:35 PM 60.8 °F - 24.8 °F 25% 29.76 in 2.5 mi WNW 33.4 mph 48.3 mph N/A   Overcast
1:55 PM 60.8 °F - 23.0 °F 23% 29.77 in 4.0 mi NW 38.0 mph 47.2 mph N/A   Overcast
2:15 PM 60.8 °F - 24.8 °F 25% 29.78 in 5.0 mi WNW 29.9 mph 40.3 mph N/A   Overcast
2:35 PM 60.8 °F - 24.8 °F 25% 29.78 in 4.0 mi WNW 31.1 mph 40.3 mph N/A   Overcast
2:55 PM 60.8 °F - 24.8 °F 25% 29.78 in 4.0 mi WNW 32.2 mph 40.3 mph N/A   Overcast
3:15 PM 60.8 °F - 23.0 °F 23% 29.78 in 4.0 mi NW 34.5 mph 44.9 mph N/A   Overcast
3:35 PM 60.8 °F - 24.8 °F 25% 29.80 in 5.0 mi NW 31.1 mph 38.0 mph N/A   Overcast
3:55 PM 59.0 °F - 24.8 °F 27% 29.81 in 5.0 mi NW 23.0 mph 36.8 mph N/A   Overcast
4:15 PM 60.8 °F - 24.8 °F 25% 29.81 in 7.0 mi WNW 28.8 mph 36.8 mph N/A   Overcast
4:35 PM 60.8 °F - 24.8 °F 25% 29.82 in 7.0 mi NW 27.6 mph 34.5 mph N/A   Overcast
4:55 PM 60.8 °F - 24.8 °F 25% 29.84 in 5.0 mi NW 29.9 mph 39.1 mph N/A   Overcast
5:15 PM 59.0 °F - 23.0 °F 25% 29.85 in 6.0 mi WNW 28.8 mph 36.8 mph N/A   Overcast
5:35 PM 57.2 °F - 23.0 °F 27% 29.86 in 7.0 mi NW 26.5 mph 38.0 mph N/A   Overcast
5:55 PM 57.2 °F - 23.0 °F 27% 29.87 in 8.0 mi NNW 27.6 mph 39.1 mph N/A   Overcast
6:15 PM 55.4 °F - 23.0 °F 29% 29.89 in 8.0 mi NW 27.6 mph 36.8 mph N/A   Overcast
6:35 PM 55.4 °F - 24.8 °F 31% 29.90 in 9.0 mi NW 26.5 mph 34.5 mph N/A   Overcast
6:55 PM 55.4 °F - 23.0 °F 29% 29.92 in 10.0 mi NW 28.8 mph 36.8 mph N/A   Overcast
7:15 PM 53.6 °F - 23.0 °F 30% 29.94 in 10.0 mi NW 25.3 mph 29.9 mph N/A   Overcast
7:35 PM 51.8 °F - 23.0 °F 33% 29.95 in 10.0 mi NW 21.9 mph 27.6 mph N/A   Partly Cloudy
7:55 PM 50.0 °F - 23.0 °F 35% 29.96 in 10.0 mi NW 15.0 mph 25.3 mph N/A   Clear
8:15 PM 48.2 °F - 21.2 °F 34% 29.97 in 10.0 mi NNW 18.4 mph 25.3 mph N/A   Clear
8:35 PM 46.4 °F 39.2 °F 21.2 °F 37% 29.98 in 10.0 mi NNW 18.4 mph 23.0 mph N/A   Clear
8:55 PM 44.6 °F 36.6 °F 23.0 °F 43% 29.99 in 10.0 mi NNW 19.6 mph - N/A   Clear
9:15 PM 42.8 °F 34.0 °F 21.2 °F 42% 30.00 in 10.0 mi NNW 20.7 mph 25.3 mph N/A   Clear
9:35 PM 42.8 °F 34.0 °F 21.2 °F 42% 30.01 in 10.0 mi NNW 20.7 mph 26.5 mph N/A   Clear
9:55 PM 42.8 °F 32.3 °F 21.2 °F 42% 30.01 in 10.0 mi NNW 29.9 mph 36.8 mph N/A   Clear
10:15 PM 41.0 °F 30.2 °F 21.2 °F 45% 30.02 in 10.0 mi NNW 27.6 mph 34.5 mph N/A   Clear
10:35 PM 39.2 °F 28.7 °F 21.2 °F 49% 30.03 in 10.0 mi NNW 23.0 mph 33.4 mph N/A   Clear
10:55 PM 39.2 °F 28.7 °F 21.2 °F 49% 30.02 in 10.0 mi North 23.0 mph 28.8 mph N/A   Clear
11:15 PM 39.2 °F 30.2 °F 21.2 °F 49% 30.03 in 10.0 mi North 17.3 mph - N/A   Clear
11:35 PM 37.4 °F 33.8 °F 21.2 °F 52% 30.07 in 10.0 mi NNW 4.6 mph - N/A   Clear
11:55 PM 37.4 °F 30.8 °F 21.2 °F 52% 30.07 in 10.0 mi NNW 9.2 mph - N/A   Clear